Tracking 29606 objects as of 18-Sep-2024
HD Live streaming from Space Station
objects crossing your sky now

STARLINK-3698

Track STARLINK-3698 now!
10-day predictions
STARLINK-3698 is classified as:


NORAD ID: 52108
Int'l Code: 2022-029W
Perigee: 546.1 km
Apogee: 547.7 km
Inclination: 53.2 °
Period: 95.4 minutes
Semi major axis: 6917 km
RCS: Unknown
Launch date: March 19, 2022
Source: United States (US)
Launch site: AIR FORCE EASTERN TEST RANGE (AFETR)
Your satellite tracking list
Your tracking list is empty




NASA's NSSDC Master Catalog

Two Line Element Set (TLE):
1 52108U 22029W   24262.42676024  .00000068  00000-0  22335-4 0  9991
2 52108  53.2169 330.9919 0001197  87.1620 272.9509 15.08835932139674
Source of the keplerian elements: AFSPC